Regional Weather Roundup
Issued by NWS Albany, NY

Home | Current Version | Previous Version | Text Only | Print | Product List | Glossary On
Versions: 1 2 3 4 5 6 7 8 9 10 11 12 13 14 15 16 17 18 19 20 21 22 23 24 25 26 27 28 29 30 31 32 33 34 35 36 37 38 39 40 41 42 43 44 45 46 47 48 49 50
000
ASUS41 KALY 270610
RWRALY

NEW YORK STATE HOURLY WEATHER ROUNDUP
NATIONAL WEATHER SERVICE ALBANY NY
200 AM EDT FRI MAR 27 2015

NOTE: "FAIR" INDICATES FEW OR NO CLOUDS BELOW 12,000 FEET WITH NO
SIGNIFICANT WEATHER AND/OR NO OBSTRUCTIONS TO VISIBILITY.

NYZ032-033-038>043-046>054-057>066-NYZ062>081-270700-
EAST


CITY           SKY/WX    TMP DP  RH WIND       PRES   REMARKS
ALBANY         CLOUDY    37  33  85 N3        29.73F
GLENS FALLS    FOG       35  33  92 CALM      29.72F VSB 3/4
POUGHKEEPSIE   CLOUDY    40  36  86 N6        29.69S
MONTGOMERY     CLOUDY    40  38  93 NE6       29.69S
WHITE PLAINS   CLOUDY    41  38  89 NW7       29.67R
ISLIP          CLOUDY    44  41  89 N12       29.63R
NEW YORK CITY  CLOUDY    44  38  79 NW10      29.70R
CENTRAL PARK   LGT RAIN  43  38  82 VRB6      29.73R
$$

NYZ005>009-017-018-044>046-055-056-270700-
CENTRAL


CITY           SKY/WX    TMP DP  RH WIND       PRES   REMARKS
FULTON         CLOUDY    34  32  92 W6        29.79R FOG     WCI  29
SYRACUSE       CLOUDY    34  33  96 W7        29.78F FOG     WCI  28
ROME           FOG       31  31 100 W8        29.81R VSB 1/2 WCI  23
ELMIRA         CLOUDY    34  32  92 SW7       29.80R WCI  28
BINGHAMTON     CLOUDY    32  31  96 W5        29.75R FOG     WCI  27
MONTICELLO     CLOUDY    36  34  93 NW8       29.72S WCI  29
$$

NYZ026>034-041>043-270700-
NORTH


CITY           SKY/WX    TMP DP  RH WIND       PRES   REMARKS
WATERTOWN      CLOUDY    34  33  96 SW8       29.77R FOG     WCI  27
FORT DRUM      NOT AVBL
MASSENA        CLOUDY    34  34 100 SW7       29.74F FOG     WCI  28
SARANAC LAKE   CLOUDY    32  31  96 CALM      29.65F
PLATTSBURGH    CLOUDY    33  32  96 CALM      29.71F FOG
$$

NYZ001>004-010>016-019>021-270700-
WEST


CITY           SKY/WX    TMP DP  RH WIND       PRES   REMARKS
NIAGARA FALLS  CLOUDY    33  28  81 W9        29.81S WCI  25
BUFFALO        MOCLDY    32  30  92 SW7       29.81S FOG     WCI  26
DUNKIRK        CLOUDY    33  31  92 SW7       29.84F WCI  27
JAMESTOWN      CLOUDY    30  27  86 W9        29.80S WCI  22
WELLSVILLE     CLOUDY    32  28  85 NW7       29.76F WCI  26
ROCHESTER      CLOUDY    35  32  88 SW3       29.80S
PENN YAN       CLOUDY    36  30  79 W3        29.80R
$$

             KEY
       WCI = WIND CHILL INDEX
       VSB = VISIBILITY
       HX  = HEAT INDEX
$$



USA.gov is the U.S. government's official web portal to all federal, state and local government web resources and services.